| time (UTC) | temp F | wind direction | speed knots | gust knots | rain 1hr in | rain 24hr in | rain mn in | humidity % | barometer mb |
| 20260505070344 | 44 | 213 | 2.6 | 5.2 | 0.00 | 0.00 | 0.00 | 30 | 1008.6 |
| 20260505064848 | 44 | 216 | 3.5 | 6.1 | 0.00 | 0.00 | 0.00 | 35 | 1008.4 |
| 20260505063411 | 45 | 217 | 1.7 | 3.5 | 0.00 | 0.00 | 0.00 | 37 | 1008.5 |
| 20260505061836 | 45 | 217 | 2.6 | 3.5 | 0.00 | 0.00 | 0.00 | 32 | 1008.2 |
| 20260505060341 | 45 | 219 | 0.9 | 3.5 | 0.00 | 0.00 | 0.00 | 27 | 1008.4 |
| 20260505054842 | 44 | 219 | 0.9 | 1.7 | 0.00 | 0.00 | 0.00 | 27 | 1008.4 |
| 20260505053350 | 44 | 219 | 0.9 | 2.6 | 0.00 | 0.00 | 0.00 | 28 | 1007.9 |
| 20260505051911 | 45 | 213 | 3.5 | 5.2 | 0.00 | 0.00 | 0.00 | 33 | 1008.2 |
| 20260505050411 | 45 | 227 | 2.6 | 8.7 | 0.00 | 0.00 | 0.00 | 30 | 1008.2 |
| 20260505040341 | 47 | 238 | 0.0 | 2.6 | 0.00 | 0.00 | 0.00 | 64 | 1008.5 |
| 20260505034846 | 47 | 238 | 0.0 | 2.6 | 0.00 | 0.00 | 0.00 | 64 | 1008.3 |
| 20260505033347 | 47 | 239 | 1.7 | 4.3 | 0.00 | 0.00 | 0.00 | 67 | 1008.1 |
| 20260505031850 | 48 | 229 | 1.7 | 3.5 | 0.00 | 0.00 | 0.00 | 67 | 1008.1 |
| 20260505030357 | 48 | 229 | 1.7 | 3.5 | 0.00 | 0.00 | 0.00 | 68 | 1008.4 |
| 20260505024838 | 49 | 227 | 2.6 | 6.1 | 0.00 | 0.00 | 0.00 | 71 | 1008.7 |
| 20260505023340 | 49 | 223 | 1.7 | 3.5 | 0.00 | 0.00 | 0.00 | 72 | 1008.1 |
| 20260505021845 | 50 | 217 | 3.5 | 7.0 | 0.00 | 0.00 | 0.00 | 72 | 1008.4 |
| 20260505020349 | 49 | 240 | 3.5 | 6.1 | 0.00 | 0.01 | 0.00 | 72 | 1008.1 |
| 20260505014910 | 50 | 238 | 2.6 | 6.1 | 0.00 | 0.01 | 0.00 | 75 | 1007.9 |
| 20260505013352 | 53 | 342 | 1.7 | 3.5 | 0.00 | 0.01 | 0.00 | 74 | 1007.8 |
| 20260505011842 | 52 | 342 | 1.7 | 3.5 | 0.00 | 0.01 | 0.00 | 74 | 1007.7 |
| 20260505010405 | 52 | 342 | 2.6 | 3.5 | 0.00 | 0.02 | 0.00 | 75 | 1007.5 |
| 20260505004845 | 52 | 342 | 0.9 | 3.5 | 0.00 | 0.02 | 0.00 | 75 | 1007.5 |
| 20260505003351 | 52 | 342 | 0.9 | 3.5 | 0.00 | 0.02 | 0.00 | 75 | 1007.4 |
| 20260505001853 | 52 | 344 | 1.7 | 3.5 | 0.00 | 0.02 | 0.00 | 74 | 1006.8 |
| 20260505000354 | 52 | 345 | 1.7 | 2.6 | 0.00 | 0.02 | 0.00 | 74 | 1006.6 |
| 20260504234858 | 53 | 345 | 0.9 | 3.5 | 0.00 | 0.02 | 0.00 | 73 | 1006.3 |
| 20260504233344 | 53 | 344 | 1.7 | 4.3 | 0.00 | 0.02 | 0.00 | 72 | 1006.0 |
| 20260504231845 | 54 | 341 | 2.6 | 4.3 | 0.00 | 0.02 | 0.00 | 71 | 1005.9 |
| 20260504230346 | 55 | 349 | 3.5 | 5.2 | 0.00 | 0.04 | 0.00 | 69 | 1005.6 |
| 20260504224912 | 55 | 344 | 4.3 | 9.6 | 0.00 | 0.04 | 0.00 | 68 | 1005.3 |
| 20260504223352 | 55 | 325 | 4.3 | 10.4 | 0.00 | 0.04 | 0.00 | 67 | 1005.2 |
| 20260504221847 | 56 | 333 | 6.1 | 12.2 | 0.00 | 0.04 | 0.00 | 66 | 1005.1 |
| 20260504220355 | 57 | 315 | 7.0 | 13.9 | 0.00 | 0.07 | 0.00 | 64 | 1004.9 |
| 20260504214857 | 58 | 330 | 6.1 | 11.3 | 0.00 | 0.07 | 0.00 | 62 | 1004.7 |
| 20260504213336 | 58 | 323 | 5.2 | 13.9 | 0.00 | 0.07 | 0.00 | 61 | 1004.4 |
| 20260504211858 | 58 | 300 | 7.0 | 12.2 | 0.00 | 0.07 | 0.00 | 60 | 1004.2 |
| 20260504210343 | 57 | 275 | 5.2 | 14.8 | 0.00 | 0.10 | 0.00 | 61 | 1004.4 |
| 20260504204847 | 57 | 291 | 7.0 | 14.8 | 0.00 | 0.10 | 0.00 | 62 | 1004.2 |
| 20260504203349 | 57 | 291 | 7.8 | 17.4 | 0.00 | 0.10 | 0.00 | 61 | 1004.1 |
| 20260504201917 | 57 | 309 | 7.8 | 21.7 | 0.00 | 0.10 | 0.00 | 61 | 1004.3 |
| 20260504200336 | 58 | 294 | 10.4 | 20.0 | 0.00 | 0.12 | 0.00 | 60 | 1004.3 |
| 20260504194858 | 58 | 287 | 7.0 | 14.8 | 0.00 | 0.12 | 0.00 | 60 | 1004.2 |
| 20260504193336 | 57 | 265 | 12.2 | 20.9 | 0.00 | 0.12 | 0.00 | 60 | 1004.2 |
| 20260504191838 | 57 | 268 | 6.1 | 20.9 | 0.00 | 0.12 | 0.00 | 60 | 1004.3 |
| 20260504190358 | 55 | 306 | 6.1 | 13.0 | 0.00 | 0.19 | 0.00 | 65 | 1004.6 |
| 20260504184901 | 54 | 319 | 7.8 | 13.0 | 0.00 | 0.19 | 0.00 | 65 | 1004.7 |
| 20260504183344 | 55 | 311 | 6.1 | 16.5 | 0.00 | 0.19 | 0.00 | 61 | 1004.5 |
| 20260504181846 | 55 | 290 | 8.7 | 14.8 | 0.00 | 0.19 | 0.00 | 59 | 1004.5 |
| 20260504180348 | 56 | 235 | 5.2 | 11.3 | 0.00 | 0.33 | 0.00 | 52 | 1004.5 |
| 20260504174849 | 57 | 225 | 7.0 | 15.6 | 0.00 | 0.33 | 0.00 | 49 | 1003.7 |
| 20260504173354 | 58 | 268 | 7.8 | 12.2 | 0.00 | 0.33 | 0.00 | 47 | 1003.6 |
| 20260504171855 | 59 | 216 | 7.0 | 16.5 | 0.00 | 0.33 | 0.00 | 44 | 1003.6 |
| 20260504170354 | 59 | 211 | 7.0 | 20.9 | 0.00 | 0.40 | 0.00 | 45 | 1003.7 |
| 20260504160344 | 58 | 246 | 4.3 | 18.2 | 0.00 | 0.43 | 0.00 | 48 | 1004.4 |
| 20260504150355 | 55 | 304 | 8.7 | 13.9 | 0.00 | 0.46 | 0.00 | 52 | 1005.4 |
| 20260504140352 | 51 | 341 | 8.7 | 19.1 | 0.00 | 0.50 | 0.00 | 54 | 1005.8 |
| 20260504130343 | 48 | 304 | 8.7 | 14.8 | 0.00 | 0.56 | 0.00 | 58 | 1006.3 |
| 20260504110401 | 39 | 271 | 5.2 | 12.2 | 0.00 | 0.65 | 0.61 | 77 | 1005.8 |
| 20260504100350 | 37 | 294 | 4.3 | 8.7 | 0.00 | 0.67 | 0.61 | 77 | 1004.8 |
| 20260504081910 | 37 | 293 | 5.2 | 17.4 | 0.00 | 0.73 | 0.61 | 72 | 1003.4 |
| 20260504080349 | 37 | 303 | 7.8 | 13.0 | 0.00 | 0.78 | 0.61 | 70 | 1003.4 |